Zurück zum Katalog

STARLINK-1454

AktivKommunikationVLEO
NORAD 45671·PAYLOAD·🇺🇸 United States

Gestartet Jun 4, 2020 von Cape Canaveral Space Force Station

Loading…

Nächste Überflüge (nächste 24 Stunden)

TLE

AktuellSource: CelesTrak SupGP

Epoche: Sep 14, 2026, 21:42 UTC

1 45671C 20035Q   26257.90465278  .00165470  00000+0  54147-3 0  2579
2 45671  53.0356 198.1122 0006135  79.8798 330.6047 15.89751680    18

Verfolge STARLINK-1454 in Echtzeit mit AllMySat

Download on the App Store